Back to catalog

COSMOS 1275 DEB

AlivePO
NORAD 12732·DEBRIS·🇷🇺 Russia

Launched Jun 4, 1981 from Plesetsk Cosmodrome

Loading…

Next Passes (next 24 hours)

TLE

FreshSource: Space-Track

Epoch: Sep 14, 2026, 14:38 UTC

1 12732U 81053BZ  26257.61040720  .00000279  00000-0  20529-3 0  9993
2 12732  82.9920 356.0700 0051734 199.5012 225.5151 13.91634485283586

Track COSMOS 1275 DEB in real time with AllMySat

Download on the App Store